[[{"header":{"parameterUnit":"m.s-1","parameterCategory":1,"la1":30.2991,"la2":30.254,"lo1":-89.0895,"lo2":-89.0444,"dy":0.0017,"dx":0.0017,"nx":28,"ny":28,"refTime":"2024-10-05T21:00:00:Z","depth":0,"parameterNumber":2,"parameterNumberName":"U-component_of_WINDS"},"data":[0,0,0,0,0,0,0,0,0,0,0,0,0,0,0,0,0,0,0,0,0,0,0,0,0,0,0,0,0,0,0,0,0,0,0,0,0,0,0,0,0,0,0,0,0,0,0,0,0,0,0,0,0,0,0,0,0,0,-2.7679,-2.768,0,-2.7781,-2.7782,-2.7783,-2.7643,-2.7638,-2.7633,-2.7628,-2.7741,-2.7748,-2.7756,0,0,0,0,0,0,0,0,0,0,0,0,0,-2.7371,-2.7377,-2.7679,-2.768,-2.7681,-2.778,-2.7782,-2.7783,-2.7644,-2.7638,-2.7632,-2.7626,-2.7738,-2.7747,-2.7756,0,0,0,0,0,0,0,0,0,0,0,0,0,-2.7492,-2.7379,-2.7678,-2.7623,-2.762,-2.778,-2.7782,-2.7784,-2.7645,-2.7638,-2.763,-2.7623,-2.7735,-2.7746,-2.7758,-2.7979,0,0,-2.7793,-2.7798,0,0,0,0,0,0,0,0,-2.7486,-2.7504,-2.763,-2.7628,-2.7623,-2.7691,-2.7714,-2.7849,-2.7647,-2.7636,-2.7628,-2.762,-2.7731,-2.7742,-2.7778,-2.7984,-2.7989,-2.7794,-2.7801,-2.7806,-2.7809,0,0,0,0,0,0,0,-2.7477,-2.7499,-2.7719,-2.7632,-2.7628,-2.7596,-2.7605,-2.7739,-2.7725,-2.7636,-2.7626,-2.764,-2.7728,-2.7767,-2.778,-2.7991,-2.7793,-2.7804,-2.7811,-2.7815,-2.8388,-2.8395,0,0,0,0,0,0,-2.7474,-2.7492,-2.7716,-2.7722,-2.7534,-2.7608,-2.7618,-2.7677,-2.7723,-2.7722,-2.7646,-2.7633,-2.7751,-2.7766,-2.7783,-2.8049,-2.7806,-2.7816,-2.7823,-2.8379,-2.8389,-2.8398,0,0,0,0,0,0,-2.7468,-2.7496,-2.7712,-2.7605,-2.763,-2.7621,-2.7689,-2.7683,-2.7723,-2.773,-2.7727,-2.7689,-2.7746,-2.7767,-2.7932,-2.805,-2.7822,-2.7832,-2.837,-2.8382,-2.8394,-2.858,0,0,0,0,0,0,-2.746,-2.7494,-2.7577,-2.7607,-2.7636,-2.7857,-2.7696,-2.7691,-2.7742,-2.7726,-2.777,-2.777,-2.7742,-2.7915,-2.7943,-2.8062,-2.7841,-2.8359,-2.8375,-2.839,-2.8563,-2.8597,-2.8626,0,0,0,0,0,-2.7449,-2.7626,-2.7582,-2.7609,-2.7738,-2.7864,-2.7881,-2.7842,-2.7752,-2.7837,-2.7841,-2.7769,-2.8032,-2.7933,-2.7963,-2.8088,-2.8351,-2.8371,-2.8389,-2.8549,-2.859,-2.8625,0,0,0,0,0,0,-2.7612,-2.7629,-2.758,-2.7771,-2.7817,-2.784,-2.7945,-2.7887,-2.7962,-2.7944,-2.7895,-2.7906,-2.8083,-2.8101,-2.7991,-2.8306,-2.8177,-2.8203,-2.8289,-2.8328,-2.8359,-2.8353,-2.7851,0,0,0,0,0,-2.7669,-2.7767,-2.7778,-2.7946,-2.7971,-2.7955,-2.8008,-2.7974,-2.8021,-2.804,-2.8057,-2.8107,-2.8201,-2.8265,-2.8352,-2.8563,-2.8573,-2.8664,-2.8695,-2.8721,-2.8745,-2.8862,-2.8904,-2.846,-2.846,-2.8459,0,0,-2.779,-2.7812,-2.7877,-2.7979,-2.801,-2.8116,-2.7972,-2.8089,-2.8168,-2.8059,-2.8216,-2.823,-2.8283,-2.8473,-2.8558,-2.8494,-2.8869,-2.8745,-2.8765,-2.8776,-2.8886,-2.8928,-2.8965,-2.8472,-2.847,-2.8468,0,0,-2.8066,-2.809,-2.8234,-2.8268,-2.8317,-2.8305,-2.8339,-2.8371,-2.8376,-2.8532,-2.8453,-2.8547,-2.8709,-2.8751,-2.8794,-2.9085,-2.9023,-2.9115,-2.9282,-2.9396,-2.9431,-2.9462,-2.957,-2.9609,-2.9138,-2.9139,-2.9139,0,-2.8211,-2.8365,-2.8316,-2.8439,-2.8488,-2.839,-2.8538,-2.8574,-2.865,-2.8688,-2.8613,-2.8816,-2.8845,-2.9045,-2.9116,-2.9153,-2.9194,-2.9112,-2.9429,-2.946,-2.9488,-2.9591,-2.9631,-2.915,-2.9148,-2.9147,-2.9146,0,-2.8543,-2.8651,-2.8761,-2.8836,-2.8896,-2.9031,-2.9005,-2.9073,-2.9034,-2.9031,-2.9193,-2.9223,-2.9316,-2.936,-2.9323,-2.9556,-2.9515,-2.9436,-2.9307,-2.9543,-2.9639,-2.9677,-2.9166,-2.9162,-2.9158,-2.9156,0,0,-2.8926,-2.897,-2.9012,-2.9046,-2.9092,-2.9177,-2.9308,-2.9396,-2.9457,-2.9512,-2.9625,-2.9764,-2.9691,-2.974,-2.9707,-2.9807,-3.0041,-2.9716,-2.9716,-2.9779,-3.0304,-3.0367,-3.0413,-2.9998,-3.0005,-3.0011,-3.0301,0,-2.9204,-2.9429,-2.939,-2.961,-2.9711,-2.962,-2.9735,-2.9778,-2.9778,-2.9866,-2.9867,-2.9968,-2.9862,-2.9892,-2.9986,-2.9993,-3.0147,-2.997,-3.0106,-3.0111,-3.01,-3.0462,-3.0528,-3.0801,-3.0338,-3.0344,-3.0349,0,-2.9559,-2.9627,-2.9857,-2.9889,-2.993,-3.0034,-3.0113,-3.0197,-3.0244,-3.0238,-3.0292,-3.0241,-3.0376,-3.024,-3.0427,-3.0309,-3.0361,-3.0373,-3.0382,-3.0398,-3.0248,-3.0492,-3.0887,-3.093,-3.0407,-3.0402,-3.0398,0,-2.9822,-2.9969,-3.0127,-3.0157,-3.0198,-3.0274,-3.0295,-3.0334,-3.0391,-3.046,-3.0497,-3.0581,-3.063,-3.0698,-3.0672,-3.0575,-3.0866,-3.0728,-3.0868,-3.087,-3.0937,-3.0934,-3.1352,-3.0964,-3.0963,-3.0963,-3.0962,0,-3.0139,-3.0285,-3.0245,-3.0343,-3.0504,-3.0457,-3.0619,-3.0629,-3.0665,-3.0766,-3.0691,-3.0787,-3.0745,-3.084,-3.0821,-3.0981,-3.1002,-3.1003,-3.0998,-3.1013,-3.1013,-3.105,-3.1032,-3.0973,-3.0971,-3.0969,-3.0967,0,-3.0461,-3.0439,-3.0606,-3.063,-3.0639,-3.0758,-3.078,-3.0873,-3.0866,-3.0994,-3.1021,-3.1013,-3.112,-3.11,-3.1219,-3.1206,-3.1408,-3.1376,-3.1392,-3.1386,-3.1529,-3.1518,-3.1989,-3.205,-3.1619,-3.1623,-3.1626,0,-3.0667,-3.0777,-3.0812,-3.0872,-3.0899,-3.0997,-3.1054,-3.1012,-3.1075,-3.1137,-3.1224,-3.1324,-3.1402,-3.1578,-3.1585,-3.1676,-3.1649,-3.1808,-3.1663,-3.1676,-3.1657,-3.1653,-3.1665,-3.1838,-3.1843,-3.1847,-3.185,0,-3.1037,-3.102,-3.1103,-3.1185,-3.1254,-3.1316,-3.1371,-3.1425,-3.1388,-3.1463,-3.1571,-3.1631,-3.1752,-3.1854,-3.1939,-3.1963,-3.1904,-3.1895,-3.1933,-3.1952,-3.1959,-3.1962,-3.1475,-3.1886,-3.1882,-3.1879,-3.1878,-3.1876,-3.131,-3.1404,-3.1444,-3.154,-3.1576,-3.163,-3.1719,-3.1723,-3.1811,-3.1905,-3.1875,-3.1999,-3.2045,-3.2153,-3.2187,-3.2285,-3.2227,-3.2281,-3.2295,-3.2311,-3.233,-3.1939,-3.23,-3.2299,-3.2298,-3.2297,-3.2296,0,-3.1679,-3.17,-3.1788,-3.1867,-3.1944,-3.1875,-3.1933,-3.2003,-3.2112,-3.2159,-3.2237,-3.2363,-3.2461,-3.2475,-3.2569,-3.2645,-3.2621,-3.2672,-3.2668,-3.2676,-3.2375,-3.2334,-3.2691,-3.2691,-3.2691,-3.2691,-3.269,-3.269,-3.1881,-3.2038,-3.2027,-3.2202,-3.2222,-3.2341,-3.2381,-3.2431,-3.2468,-3.2611,-3.2692,-3.2699,-3.2734,-3.283,-3.2918,-3.292,-3.296,-3.3024,-3.3016,-3.2736,-3.2696,-3.2659,-3.2621,-3.3032,-3.3032,-3.3309,-3.3311,-3.3313]},{"header":{"parameterUnit":"m.s-1","parameterCategory":1,"la1":30.2991,"la2":30.254,"lo1":-89.0895,"lo2":-89.0444,"dy":0.0017,"dx":0.0017,"nx":28,"ny":28,"refTime":"2024-10-05T21:00:00:Z","depth":0,"parameterNumber":3,"parameterNumberName":"V-component_of_WINDS"},"data":[0,0,0,0,0,0,0,0,0,0,0,0,0,0,0,0,0,0,0,0,0,0,0,0,0,0,0,0,0,0,0,0,0,0,0,0,0,0,0,0,0,0,0,0,0,0,0,0,0,0,0,0,0,0,0,0,0,0,-0.7218,-0.7218,0,-0.7256,-0.7256,-0.7257,-0.7287,-0.7287,-0.7287,-0.7288,-0.7325,-0.7326,-0.7326,0,0,0,0,0,0,0,0,0,0,0,0,0,-0.717,-0.7171,-0.7218,-0.7218,-0.7219,-0.7256,-0.7256,-0.7257,-0.7287,-0.7287,-0.7287,-0.7288,-0.7325,-0.7325,-0.7326,0,0,0,0,0,0,0,0,0,0,0,0,0,-0.7198,-0.7171,-0.7218,-0.7238,-0.7241,-0.7256,-0.7256,-0.7257,-0.7287,-0.7287,-0.7288,-0.7288,-0.7324,-0.7325,-0.7326,-0.7324,0,0,-0.733,-0.733,0,0,0,0,0,0,0,0,-0.7196,-0.7199,-0.7235,-0.7237,-0.7239,-0.7267,-0.7253,-0.7279,-0.7286,-0.7269,-0.7288,-0.7288,-0.7305,-0.7308,-0.7314,-0.7325,-0.7327,-0.733,-0.733,-0.7331,-0.7331,0,0,0,0,0,0,0,-0.7194,-0.7198,-0.7233,-0.7235,-0.7238,-0.7245,-0.725,-0.7258,-0.7284,-0.7271,-0.7273,-0.7277,-0.7306,-0.7313,-0.7315,-0.7328,-0.733,-0.7331,-0.7331,-0.7332,-0.7339,-0.7339,0,0,0,0,0,0,-0.7189,-0.7196,-0.7232,-0.7234,-0.7219,-0.7246,-0.7251,-0.7258,-0.7284,-0.7288,-0.7277,-0.7278,-0.7311,-0.7314,-0.7316,-0.7316,-0.7331,-0.7332,-0.7332,-0.734,-0.7339,-0.7339,0,0,0,0,0,0,-0.7188,-0.7192,-0.723,-0.7216,-0.7221,-0.7246,-0.7254,-0.7258,-0.7265,-0.7289,-0.7293,-0.7278,-0.7311,-0.7315,-0.7322,-0.7317,-0.7332,-0.7333,-0.734,-0.734,-0.7339,-0.7314,0,0,0,0,0,0,-0.7187,-0.7192,-0.7191,-0.7216,-0.7222,-0.7235,-0.7253,-0.7259,-0.7266,-0.7269,-0.7291,-0.7296,-0.7312,-0.732,-0.7323,-0.7319,-0.7334,-0.7341,-0.734,-0.7339,-0.7315,-0.7312,-0.731,0,0,0,0,0,-0.7185,-0.7182,-0.7191,-0.7195,-0.7222,-0.7235,-0.7239,-0.7258,-0.7266,-0.7266,-0.7281,-0.7295,-0.7317,-0.7321,-0.7324,-0.732,-0.7341,-0.734,-0.7339,-0.7316,-0.7313,-0.731,0,0,0,0,0,0,-0.7156,-0.7186,-0.7196,-0.7201,-0.7215,-0.724,-0.724,-0.7253,-0.7265,-0.7267,-0.729,-0.7295,-0.7299,-0.731,-0.7314,-0.7319,-0.7331,-0.7331,-0.7312,-0.7309,-0.7307,-0.7304,-0.7335,0,0,0,0,0,-0.715,-0.7159,-0.7184,-0.7186,-0.7193,-0.7215,-0.7222,-0.7235,-0.7251,-0.7257,-0.7273,-0.7287,-0.7297,-0.7304,-0.7314,-0.7316,-0.7322,-0.7315,-0.7313,-0.7311,-0.731,-0.7313,-0.731,-0.7336,-0.7336,-0.7336,0,0,-0.7139,-0.7156,-0.716,-0.7181,-0.7194,-0.7202,-0.722,-0.7228,-0.7234,-0.7258,-0.7266,-0.7278,-0.7295,-0.73,-0.7303,-0.7309,-0.7304,-0.7309,-0.7307,-0.7308,-0.7311,-0.7309,-0.7307,-0.7335,-0.7335,-0.7335,0,0,-0.7122,-0.7135,-0.7139,-0.7151,-0.7171,-0.7185,-0.7186,-0.7209,-0.7218,-0.7227,-0.7245,-0.7252,-0.7269,-0.7281,-0.7289,-0.7276,-0.729,-0.7279,-0.7266,-0.7268,-0.7266,-0.7264,-0.7261,-0.7259,-0.7279,-0.7279,-0.7278,0,-0.7105,-0.7118,-0.7139,-0.7146,-0.7155,-0.7177,-0.7181,-0.7191,-0.7213,-0.7218,-0.7225,-0.7247,-0.726,-0.7269,-0.7266,-0.7271,-0.7273,-0.7277,-0.7265,-0.7263,-0.7262,-0.7259,-0.7257,-0.7277,-0.7277,-0.7277,-0.7278,0,-0.7097,-0.7106,-0.7106,-0.7127,-0.7136,-0.7141,-0.7162,-0.7168,-0.7181,-0.7195,-0.7203,-0.722,-0.7234,-0.7237,-0.7249,-0.7247,-0.725,-0.726,-0.7273,-0.7258,-0.7255,-0.7254,-0.7275,-0.7276,-0.7276,-0.7276,0,0,-0.7063,-0.7096,-0.7096,-0.7106,-0.7128,-0.7136,-0.7141,-0.7156,-0.7162,-0.7175,-0.7181,-0.7195,-0.7205,-0.7214,-0.7228,-0.7229,-0.7219,-0.7239,-0.724,-0.7236,-0.7218,-0.7211,-0.7209,-0.7228,-0.7227,-0.7227,-0.7217,0,-0.7051,-0.7064,-0.7082,-0.7089,-0.7098,-0.7119,-0.7124,-0.7138,-0.7151,-0.716,-0.7175,-0.7185,-0.7196,-0.7202,-0.7205,-0.722,-0.7216,-0.7221,-0.7234,-0.7234,-0.723,-0.7208,-0.72,-0.719,-0.7216,-0.7216,-0.7216,0,-0.7038,-0.7052,-0.7059,-0.7082,-0.7086,-0.7091,-0.7106,-0.7114,-0.7131,-0.714,-0.715,-0.7165,-0.7172,-0.7183,-0.7193,-0.7196,-0.7202,-0.721,-0.721,-0.7213,-0.7225,-0.7211,-0.7187,-0.7186,-0.7214,-0.7214,-0.7214,0,-0.7014,-0.7034,-0.7042,-0.7049,-0.7075,-0.7078,-0.7089,-0.7106,-0.7114,-0.7127,-0.7132,-0.7145,-0.7153,-0.7163,-0.7181,-0.7186,-0.7189,-0.7201,-0.7197,-0.7197,-0.7198,-0.7198,-0.7176,-0.72,-0.72,-0.72,-0.72,0,-0.6999,-0.7003,-0.7031,-0.7036,-0.7041,-0.7062,-0.7066,-0.7079,-0.7094,-0.7101,-0.7119,-0.7126,-0.7148,-0.7157,-0.7171,-0.7178,-0.7181,-0.7189,-0.7193,-0.7188,-0.7187,-0.7193,-0.7194,-0.72,-0.72,-0.72,-0.72,0,-0.6974,-0.6993,-0.7002,-0.7026,-0.7032,-0.7035,-0.7055,-0.706,-0.7074,-0.7083,-0.7087,-0.7108,-0.712,-0.7138,-0.7155,-0.7164,-0.7169,-0.7174,-0.7163,-0.7166,-0.7162,-0.7162,-0.7144,-0.7143,-0.7166,-0.7166,-0.7166,0,-0.6963,-0.6967,-0.6992,-0.6998,-0.7008,-0.7018,-0.7027,-0.7047,-0.7055,-0.7074,-0.7077,-0.7089,-0.7101,-0.7118,-0.7135,-0.7148,-0.7155,-0.7147,-0.7157,-0.7152,-0.7156,-0.7156,-0.7157,-0.7146,-0.7145,-0.7145,-0.7145,0,-0.6943,-0.6952,-0.6964,-0.6979,-0.6988,-0.7001,-0.7014,-0.7018,-0.7041,-0.7049,-0.7061,-0.707,-0.7087,-0.71,-0.7115,-0.7126,-0.7139,-0.7141,-0.7141,-0.7137,-0.7131,-0.7135,-0.7159,-0.7142,-0.7142,-0.7142,-0.7143,-0.7143,-0.6926,-0.693,-0.6948,-0.6961,-0.6973,-0.6985,-0.6991,-0.7006,-0.7016,-0.7033,-0.7043,-0.7055,-0.7071,-0.7093,-0.7103,-0.7112,-0.7118,-0.7118,-0.7118,-0.7118,-0.7117,-0.7129,-0.7115,-0.7115,-0.7115,-0.7115,-0.7115,0,-0.6907,-0.692,-0.6931,-0.6949,-0.6959,-0.697,-0.6986,-0.6993,-0.7003,-0.7017,-0.7028,-0.7042,-0.7055,-0.7073,-0.7086,-0.709,-0.7097,-0.7093,-0.7094,-0.7096,-0.711,-0.7109,-0.7088,-0.7088,-0.7088,-0.7088,-0.7088,-0.7088,-0.6899,-0.6908,-0.6919,-0.6933,-0.6946,-0.6958,-0.6966,-0.6977,-0.6988,-0.7003,-0.7014,-0.7026,-0.7041,-0.7056,-0.7068,-0.7073,-0.7077,-0.7072,-0.7079,-0.7092,-0.7095,-0.7097,-0.7097,-0.7073,-0.7073,-0.7064,-0.7064,-0.7064]}]]